Time,TemperatureF,DewpointF,PressureIn,WindDirection,WindDirectionDegrees,WindSpeedMPH,WindSpeedGustMPH,Humidity,HourlyPrecipIn,Conditions,Clouds,dailyrainin,SoftwareType,DateUTC
2013-10-06 00:13:00,74.5,9.4,30.01,West,270,2.7,-999.0,8,-99.99,,,0.00,Acu-Link.com,2013-10-06 07:13:00,
2013-10-06 00:28:00,74.5,9.4,30.01,WNW,292,2.7,-999.0,8,-99.99,,,0.00,Acu-Link.com,2013-10-06 07:28:00,
2013-10-06 00:43:00,75.4,7.1,30.00,West,270,1.7,-999.0,7,-99.99,,,0.00,Acu-Link.com,2013-10-06 07:43:00,
2013-10-06 00:59:00,75.2,6.9,30.01,West,270,1.7,-999.0,7,-99.99,,,0.00,Acu-Link.com,2013-10-06 07:59:00,
2013-10-06 01:14:00,73.9,8.9,30.01,WNW,292,2.2,-999.0,8,-99.99,,,0.00,Acu-Link.com,2013-10-06 08:14:00,
2013-10-06 01:29:00,73.4,8.5,30.01,SW,225,1.1,-999.0,8,-99.99,,,0.00,Acu-Link.com,2013-10-06 08:29:00,
2013-10-06 01:45:00,71.6,7.2,30.01,West,270,0.0,-999.0,8,-99.99,,,0.00,Acu-Link.com,2013-10-06 08:45:00,
2013-10-06 02:00:00,69.8,12.9,30.02,SSW,202,0.0,-999.0,11,-99.99,,,0.00,Acu-Link.com,2013-10-06 09:00:00,
2013-10-06 02:15:00,68.5,11.9,30.03,West,270,0.0,-999.0,11,-99.99,,,0.00,Acu-Link.com,2013-10-06 09:15:00,
2013-10-06 02:30:00,69.3,10.4,30.02,SW,225,2.2,-999.0,10,-99.99,,,0.00,Acu-Link.com,2013-10-06 09:30:00,
2013-10-06 02:45:00,70.2,11.1,30.02,West,270,2.7,-999.0,10,-99.99,,,0.00,Acu-Link.com,2013-10-06 09:45:00,
2013-10-06 03:00:00,68.2,17.2,30.02,South,180,0.0,-999.0,14,-99.99,,,0.00,Acu-Link.com,2013-10-06 10:00:00,
2013-10-06 03:15:00,63.1,13.2,30.00,NW,315,2.7,-999.0,14,-99.99,,,0.00,Acu-Link.com,2013-10-06 10:15:00,
2013-10-06 03:31:00,64.9,11.1,29.99,WNW,292,1.1,-999.0,12,-99.99,,,0.00,Acu-Link.com,2013-10-06 10:31:00,
2013-10-06 03:46:00,66.0,10.0,29.99,West,270,1.7,-999.0,11,-99.99,,,0.00,Acu-Link.com,2013-10-06 10:46:00,
2013-10-06 04:01:00,65.8,11.8,29.99,NW,315,2.2,-999.0,12,-99.99,,,0.00,Acu-Link.com,2013-10-06 11:01:00,
2013-10-06 04:16:00,66.9,8.6,29.99,NNW,337,2.2,-999.0,10,-99.99,,,0.00,Acu-Link.com,2013-10-06 11:16:00,
2013-10-06 04:32:00,67.6,9.1,29.98,WSW,247,1.7,-999.0,10,-99.99,,,0.00,Acu-Link.com,2013-10-06 11:32:00,
2013-10-06 04:47:00,67.1,10.9,29.98,SW,225,0.0,-999.0,11,-99.99,,,0.00,Acu-Link.com,2013-10-06 11:47:00,
2013-10-06 05:02:00,65.7,16.8,29.99,SSE,157,0.0,-999.0,15,-99.99,,,0.00,Acu-Link.com,2013-10-06 12:02:00,
2013-10-06 05:17:00,63.9,18.2,29.99,SSW,202,0.0,-999.0,17,-99.99,,,0.00,Acu-Link.com,2013-10-06 12:17:00,
2013-10-06 05:33:00,62.1,21.7,29.99,South,180,0.0,-999.0,21,-99.99,,,0.00,Acu-Link.com,2013-10-06 12:33:00,
2013-10-06 05:48:00,61.2,22.1,30.00,SW,225,1.7,-999.0,22,-99.99,,,0.00,Acu-Link.com,2013-10-06 12:48:00,
2013-10-06 06:03:00,60.4,28.8,30.00,SE,135,0.0,-999.0,30,-99.99,,,0.00,Acu-Link.com,2013-10-06 13:03:00,
2013-10-06 06:18:00,59.4,24.5,30.00,SW,225,0.0,-999.0,26,-99.99,,,0.00,Acu-Link.com,2013-10-06 13:18:00,
2013-10-06 06:34:00,60.1,16.5,30.00,West,270,0.0,-999.0,18,-99.99,,,0.00,Acu-Link.com,2013-10-06 13:34:00,
2013-10-06 06:49:00,60.4,24.4,30.01,WNW,292,1.1,-999.0,25,-99.99,,,0.00,Acu-Link.com,2013-10-06 13:49:00,
2013-10-06 07:04:00,59.9,25.8,30.01,South,180,0.0,-999.0,27,-99.99,,,0.00,Acu-Link.com,2013-10-06 14:04:00,
2013-10-06 07:20:00,60.3,29.5,30.02,South,180,0.0,-999.0,31,-99.99,,,0.00,Acu-Link.com,2013-10-06 14:20:00,
2013-10-06 07:35:00,60.8,24.8,30.02,NW,315,0.0,-999.0,25,-99.99,,,0.00,Acu-Link.com,2013-10-06 14:35:00,
2013-10-06 07:50:00,63.7,30.0,30.02,SSW,202,0.0,-999.0,28,-99.99,,,0.00,Acu-Link.com,2013-10-06 14:50:00,
2013-10-06 08:06:00,68.5,34.1,30.02,West,270,0.0,-999.0,28,-99.99,,,0.00,Acu-Link.com,2013-10-06 15:06:00,
2013-10-06 08:21:00,71.4,38.3,30.02,SSW,202,0.0,-999.0,30,-99.99,,,0.00,Acu-Link.com,2013-10-06 15:21:00,
2013-10-06 08:36:00,74.5,41.0,30.02,SSW,202,0.0,-999.0,30,-99.99,,,0.00,Acu-Link.com,2013-10-06 15:36:00,
2013-10-06 08:51:00,79.0,20.0,30.02,NNE,22,2.2,-999.0,11,-99.99,,,0.00,Acu-Link.com,2013-10-06 15:51:00,
2013-10-06 09:07:00,80.1,13.5,30.02,WSW,247,1.1,-999.0,8,-99.99,,,0.00,Acu-Link.com,2013-10-06 16:07:00,
2013-10-06 09:22:00,80.8,11.0,30.02,SW,225,1.7,-999.0,7,-99.99,,,0.00,Acu-Link.com,2013-10-06 16:22:00,
2013-10-06 09:37:00,83.3,9.4,30.02,WNW,292,1.1,-999.0,6,-99.99,,,0.00,Acu-Link.com,2013-10-06 16:37:00,
2013-10-06 09:53:00,83.5,5.5,30.02,West,270,2.2,-999.0,5,-99.99,,,0.00,Acu-Link.com,2013-10-06 16:53:00,
2013-10-06 10:08:00,87.3,3.3,30.01,South,180,1.7,-999.0,4,-99.99,,,0.00,Acu-Link.com,2013-10-06 17:08:00,
2013-10-06 10:23:00,85.6,14.5,30.01,SSW,202,0.0,-999.0,7,-99.99,,,0.00,Acu-Link.com,2013-10-06 17:23:00,
2013-10-06 10:39:00,86.4,7.5,30.00,South,180,1.1,-999.0,5,-99.99,,,0.00,Acu-Link.com,2013-10-06 17:39:00,
2013-10-06 10:54:00,89.4,4.7,29.99,South,180,0.0,-999.0,4,-99.99,,,0.00,Acu-Link.com,2013-10-06 17:54:00,
2013-10-06 11:09:00,89.4,4.7,29.99,South,180,2.2,-999.0,4,-99.99,,,0.00,Acu-Link.com,2013-10-06 18:09:00,
2013-10-06 11:24:00,89.2,9.5,29.98,SSE,157,1.7,-999.0,5,-99.99,,,0.00,Acu-Link.com,2013-10-06 18:24:00,
2013-10-06 11:39:00,89.6,9.8,29.97,South,180,2.7,-999.0,5,-99.99,,,0.00,Acu-Link.com,2013-10-06 18:39:00,
2013-10-06 11:54:00,91.0,10.7,29.96,SSW,202,4.7,-999.0,5,-99.99,,,0.00,Acu-Link.com,2013-10-06 18:54:00,
2013-10-06 12:09:00,90.3,10.3,29.95,WSW,247,3.2,-999.0,5,-99.99,,,0.00,Acu-Link.com,2013-10-06 19:09:00,
2013-10-06 12:25:00,91.2,10.9,29.94,SSE,157,2.7,-999.0,5,-99.99,,,0.00,Acu-Link.com,2013-10-06 19:25:00,
2013-10-06 12:40:00,91.8,6.4,29.94,South,180,1.1,-999.0,4,-99.99,,,0.00,Acu-Link.com,2013-10-06 19:40:00,
2013-10-06 12:55:00,91.8,6.4,29.92,ESE,112,2.7,-999.0,4,-99.99,,,0.00,Acu-Link.com,2013-10-06 19:55:00,
2013-10-06 13:10:00,93.2,1.1,29.91,SSE,157,1.7,-999.0,3,-99.99,,,0.00,Acu-Link.com,2013-10-06 20:10:00,
2013-10-06 13:26:00,92.7,0.8,29.91,South,180,3.7,-999.0,3,-99.99,,,0.00,Acu-Link.com,2013-10-06 20:26:00,
2013-10-06 13:41:00,93.2,7.3,29.89,SSW,202,2.2,-999.0,4,-99.99,,,0.00,Acu-Link.com,2013-10-06 20:41:00,
2013-10-06 13:56:00,93.9,-6.9,29.88,SSW,202,3.7,-999.0,2,-99.99,,,0.00,Acu-Link.com,2013-10-06 20:56:00,
2013-10-06 14:11:00,93.7,1.4,29.87,SSE,157,2.2,-999.0,3,-99.99,,,0.00,Acu-Link.com,2013-10-06 21:11:00,
2013-10-06 14:26:00,94.3,1.8,29.87,West,270,1.1,-999.0,3,-99.99,,,0.00,Acu-Link.com,2013-10-06 21:26:00,
2013-10-06 14:42:00,95.0,8.5,29.86,South,180,1.1,-999.0,4,-99.99,,,0.00,Acu-Link.com,2013-10-06 21:42:00,
2013-10-06 14:57:00,95.0,8.5,29.86,SSE,157,2.7,-999.0,4,-99.99,,,0.00,Acu-Link.com,2013-10-06 21:57:00,
2013-10-06 15:12:00,95.0,8.5,29.86,ESE,112,3.2,-999.0,4,-99.99,,,0.00,Acu-Link.com,2013-10-06 22:12:00,
2013-10-06 15:27:00,94.8,2.1,29.85,SSE,157,3.2,-999.0,3,-99.99,,,0.00,Acu-Link.com,2013-10-06 22:27:00,
2013-10-06 15:43:00,94.8,8.4,29.85,NE,45,3.2,-999.0,4,-99.99,,,0.00,Acu-Link.com,2013-10-06 22:43:00,
2013-10-06 15:58:00,94.6,8.3,29.84,SW,225,1.1,-999.0,4,-99.99,,,0.00,Acu-Link.com,2013-10-06 22:58:00,
2013-10-06 16:13:00,95.4,2.5,29.84,South,180,2.2,-999.0,3,-99.99,,,0.00,Acu-Link.com,2013-10-06 23:13:00,
2013-10-06 16:28:00,93.9,7.8,29.84,SSW,202,0.0,-999.0,4,-99.99,,,0.00,Acu-Link.com,2013-10-06 23:28:00,
2013-10-06 16:44:00,93.2,12.3,29.84,SW,225,1.1,-999.0,5,-99.99,,,0.00,Acu-Link.com,2013-10-06 23:44:00,
2013-10-06 16:59:00,92.5,11.8,29.83,SSE,157,1.7,-999.0,5,-99.99,,,0.00,Acu-Link.com,2013-10-06 23:59:00,
2013-10-06 17:14:00,91.6,11.2,29.83,ESE,112,1.7,-999.0,5,-99.99,,,0.00,Acu-Link.com,2013-10-07 00:14:00,
2013-10-06 17:30:00,92.3,11.7,29.83,SSE,157,2.7,-999.0,5,-99.99,,,0.00,Acu-Link.com,2013-10-07 00:30:00,
2013-10-06 17:45:00,91.2,15.0,29.83,ESE,112,0.0,-999.0,6,-99.99,,,0.00,Acu-Link.com,2013-10-07 00:45:00,
2013-10-06 18:00:00,87.8,22.0,29.82,SW,225,0.0,-999.0,9,-99.99,,,0.00,Acu-Link.com,2013-10-07 01:00:00,
2013-10-06 18:15:00,84.2,28.0,29.83,WSW,247,0.0,-999.0,13,-99.99,,,0.00,Acu-Link.com,2013-10-07 01:15:00,
2013-10-06 18:31:00,83.1,20.9,29.83,SSE,157,0.0,-999.0,10,-99.99,,,0.00,Acu-Link.com,2013-10-07 01:31:00,
2013-10-06 18:46:00,81.5,31.0,29.84,South,180,0.0,-999.0,16,-99.99,,,0.00,Acu-Link.com,2013-10-07 01:46:00,
2013-10-06 19:01:00,79.2,34.7,29.84,SSW,202,0.0,-999.0,20,-99.99,,,0.00,Acu-Link.com,2013-10-07 02:01:00,
2013-10-06 19:17:00,77.5,39.9,29.85,South,180,0.0,-999.0,26,-99.99,,,0.00,Acu-Link.com,2013-10-07 02:17:00,
2013-10-06 19:32:00,75.6,24.7,29.84,West,270,0.0,-999.0,15,-99.99,,,0.00,Acu-Link.com,2013-10-07 02:32:00,
2013-10-06 19:47:00,74.3,18.4,29.85,West,270,2.7,-999.0,12,-99.99,,,0.00,Acu-Link.com,2013-10-07 02:47:00,
2013-10-06 20:03:00,74.1,16.2,29.85,West,270,2.2,-999.0,11,-99.99,,,0.00,Acu-Link.com,2013-10-07 03:03:00,
2013-10-06 20:18:00,73.9,16.1,29.86,WNW,292,2.7,-999.0,11,-99.99,,,0.00,Acu-Link.com,2013-10-07 03:18:00,
2013-10-06 20:33:00,73.9,16.1,29.86,West,270,0.0,-999.0,11,-99.99,,,0.00,Acu-Link.com,2013-10-07 03:33:00,
2013-10-06 20:49:00,72.9,15.3,29.86,NW,315,0.0,-999.0,11,-99.99,,,0.00,Acu-Link.com,2013-10-07 03:49:00,
2013-10-06 21:04:00,71.6,27.2,29.86,SW,225,0.0,-999.0,19,-99.99,,,0.00,Acu-Link.com,2013-10-07 04:04:00,
2013-10-06 21:19:00,70.7,28.9,29.86,NNW,337,0.0,-999.0,21,-99.99,,,0.00,Acu-Link.com,2013-10-07 04:19:00,
2013-10-06 21:34:00,68.9,16.0,29.86,West,270,0.0,-999.0,13,-99.99,,,0.00,Acu-Link.com,2013-10-07 04:34:00,
2013-10-06 21:50:00,68.5,15.7,29.86,West,270,1.1,-999.0,13,-99.99,,,0.00,Acu-Link.com,2013-10-07 04:50:00,
2013-10-06 22:05:00,68.5,15.7,29.86,West,270,0.0,-999.0,13,-99.99,,,0.00,Acu-Link.com,2013-10-07 05:05:00,
2013-10-06 22:20:00,67.8,18.5,29.86,NE,45,0.0,-999.0,15,-99.99,,,0.00,Acu-Link.com,2013-10-07 05:20:00,
2013-10-06 22:36:00,65.8,19.8,29.86,West,270,1.7,-999.0,17,-99.99,,,0.00,Acu-Link.com,2013-10-07 05:36:00,
2013-10-06 22:51:00,66.0,18.5,29.86,North,0,0.0,-999.0,16,-99.99,,,0.00,Acu-Link.com,2013-10-07 05:51:00,
2013-10-06 23:06:00,66.0,17.0,29.87,WNW,292,0.0,-999.0,15,-99.99,,,0.00,Acu-Link.com,2013-10-07 06:06:00,
2013-10-06 23:21:00,66.2,13.9,29.87,West,270,0.0,-999.0,13,-99.99,,,0.00,Acu-Link.com,2013-10-07 06:21:00,
2013-10-06 23:36:00,66.2,12.1,29.87,West,270,0.0,-999.0,12,-99.99,,,0.00,Acu-Link.com,2013-10-07 06:36:00,
2013-10-06 23:52:00,66.4,18.9,29.87,West,270,0.0,-999.0,16,-99.99,,,0.00,Acu-Link.com,2013-10-07 06:52:00,